Regional Weather Roundup
Issued by NWS State College, PA

Home | Current Version | Previous Version | Text Only | Print | Product List | Glossary On
Versions: 1 2 3 4 5 6 7 8 9 10 11 12 13 14 15 16 17 18 19 20 21 22 23 24 25 26 27 28 29 30 31 32 33 34 35 36 37 38 39 40 41 42 43 44 45 46 47 48 49 50
000
ASUS41 KCTP 251210
RWRCTP

REGIONAL WEATHER ROUNDUP
NATIONAL WEATHER SERVICE STATE COLLEGE PA
700 AM EST SUN JAN 25 2015

Note: "fair" indicates few or no clouds below 12,000 feet with no
significant weather and/or obstructions to visibility.

* = STATION THAT DOES NOT REPORT PRECIPITATION /E.G. RAIN...SNOW...ETC/
    THUNDER OR FOG.

PAZ002>004-007>009-013>016-020>023-029>032-251300-
WESTERN PENNSYLVANIA

CITY           SKY/WX    TMP DP  RH WIND       PRES   REMARKS
ERIE           LGT SNOW  28  22  78 N8        29.79R
MEADVILLE      CLOUDY    28  26  92 N9        29.73R FOG
FRANKLIN*      CLOUDY    32  28  86 CALM      29.73R
NEW CASTLE     PTSUNNY   32  32 100 CALM      29.75R FOG
BEAVER COUNTY  NOT AVBL
BUTLER*        CLOUDY    34  30  86 SW6       29.75R
PITTSBURGH INT LGT SNOW  33  31  92 SW6       29.74R FOG
PITTSBURGH     CLOUDY    33  28  81 SW8       29.74R HAZE
INDIANA*       CLOUDY    34  32  93 W12       29.75R FOG
LATROBE        CLOUDY    32  32 100 SW9       29.77R FOG
WASHINGTON CO* CLOUDY    34  28  80 SW7       29.77R
$$

PAZ004>006-010>012-017>019-024>028-033>037-041-042-045-046-049>053-251300-
CENTRAL PENNSYLVANIA

CITY           SKY/WX    TMP DP  RH WIND       PRES   REMARKS
BRADFORD       CLOUDY    25  20  81 NW12      29.67R WCI  14
DUBOIS         CLOUDY    31  30  96 W9        29.67R FOG
CLEARFIELD     CLOUDY    32  29  88 W7        29.68R
JOHNSTOWN      MIX PCPN  30  28  92 W12G23    29.67R VSB 1/4
ALTOONA        CLOUDY    34  31  88 W8        29.71R
STATE COLLEGE  CLOUDY    34  30  86 W12G21    29.70R HAZE
WILLIAMSPORT   CLOUDY    35  30  82 W5        29.69R
SELINSGROVE    CLOUDY    39  29  67 VRB5      29.72R
FT INDIANTOWN  CLOUDY    37  28  71 SW10      29.72R
CAPITAL CITY   CLOUDY    39  28  64 W5        29.74R
HARRISBURG     CLOUDY    38  28  67 W12       29.74R
YORK           CLOUDY    37  28  70 SW7       29.75R
$$

PAZ038>040-043-044-047-048-054-055-060>062-067>071-251300-
EASTERN PENNSYLVANIA

CITY           SKY/WX    TMP DP  RH WIND       PRES   REMARKS
SCRANTON       CLOUDY    33  26  75 SW10      29.63R
MOUNT POCONO   CLOUDY    30  25  81 W15       29.56R
ALLENTOWN      CLOUDY    35  27  72 SW13      29.67R
QUAKERTOWN*    NOT AVBL
READING        CLOUDY    35  27  72 SW10      29.71R
LANCASTER      CLOUDY    36  27  69 SW9       29.73R
COATESVILLE    PTSUNNY   36  30  80 W5        29.73R
POTTSTOWN      CLOUDY    36  27  69 W8        29.72R
BLUE BELL      CLOUDY    36  30  80 SW7       29.71R
DOYLESTOWN     CLOUDY    32  27  81 SW7       29.69R
WILLOW GROVE   NOT AVBL
NORTH PHILA    CLOUDY    37  26  64 SW9       29.74R
PHILADELPHIA   CLOUDY    36  28  73 SW16      29.75R
$$



USA.gov is the U.S. government's official web portal to all federal, state and local government web resources and services.